EW5860 Weather Reports


time (UTC)temp
F
wind
direction
speed
knots
gust
knots
rain 1hr
in
rain 24hr
in
rain mn
in
humidity
%
barometer
mb
20260903023038 70 112 0.0 0.0 0.00 0.13 0.13 98 1017.9
20260903021538 70 110 0.0 0.0 0.00 0.13 0.13 98 1017.9
20260903020036 70 110 0.0 0.9 0.00 0.13 0.13 98 1017.5
20260903014538 70 342 0.0 0.9 0.00 0.13 0.13 98 1017.5
20260903013036 70 51 0.0 0.9 0.00 0.13 0.13 98 1017.5
20260903011541 71 113 0.0 0.0 0.00 0.13 0.13 98 1017.5
20260903010035 71 112 0.0 0.0 0.00 0.13 0.13 98 1017.7
20260903004534 71 115 0.0 0.0 0.00 0.14 0.13 98 1017.7
20260903003035 71 121 0.0 0.0 0.00 0.14 0.13 98 1017.7
20260903001533 71 121 0.0 1.7 0.00 0.14 0.13 98 1017.5
20260903000033 71 295 0.0 3.5 0.00 0.14 0.13 98 1017.3
20260902234532 71 133 0.0 0.9 0.00 0.62 0.13 97 1017.0
20260902233037 71 258 0.0 0.9 0.00 0.62 0.13 97 1017.2
20260902231536 71 98 0.0 2.6 0.00 0.62 0.13 97 1017.3
20260902230031 71 110 0.0 1.7 0.00 0.62 0.13 97 1017.4
20260902224530 71 202 0.0 2.6 0.00 0.62 0.13 97 1017.5
20260902223031 71 220 0.0 0.0 0.00 0.62 0.13 97 1017.6
20260902221529 71 182 0.0 1.7 0.00 0.62 0.13 97 1017.7
20260902220031 72 322 0.0 0.9 0.00 0.62 0.13 97 1017.8
20260902214529 72 118 0.0 1.7 0.00 0.62 0.13 97 1018.0
20260902213028 72 293 0.0 0.9 0.00 0.62 0.13 96 1018.0
20260902211527 72 275 0.0 0.9 0.00 0.62 0.13 97 1017.7
20260902210033 72 115 0.0 1.7 0.00 0.62 0.13 96 1017.5
20260902204537 72 138 0.0 1.7 0.00 0.62 0.13 97 1017.1
20260902203026 72 77 0.0 0.9 0.00 0.62 0.13 96 1017.4
20260902201530 72 77 0.0 0.0 0.00 0.62 0.13 97 1017.7
20260902200025 72 77 0.0 0.9 0.00 0.62 0.13 97 1018.1
20260902194523 72 350 0.0 2.6 0.00 0.62 0.13 97 1018.0
20260902193024 72 244 0.0 0.9 0.01 0.62 0.13 97 1017.5
20260902191523 72 275 0.0 0.9 0.01 0.62 0.13 97 1017.8
20260902190022 72 200 0.0 2.6 0.01 0.62 0.13 97 1017.7
20260902184522 72 226 0.0 0.0 0.02 0.62 0.13 98 1017.9
20260902183020 71 228 0.0 0.0 0.03 0.61 0.12 98 1018.4
20260902181520 71 228 0.0 0.0 0.06 0.61 0.12 98 1018.7
20260902180019 71 228 0.0 0.0 0.09 0.61 0.12 98 1018.7
20260902174517 70 228 0.0 0.9 0.08 0.60 0.11 97 1019.3
20260902173016 70 227 0.0 0.9 0.06 0.57 0.09 97 1019.0
20260902171515 70 220 0.0 0.9 0.03 0.55 0.06 97 1019.0
20260902170014 71 96 0.0 0.0 0.00 0.52 0.03 97 1019.5
20260902164518 71 96 0.0 0.0 0.00 0.52 0.03 97 1020.0
20260902163011 71 119 0.0 1.7 0.00 0.52 0.03 97 1019.7
20260902161511 71 92 0.0 0.9 0.00 0.52 0.03 97 1019.6
20260902160010 71 220 0.0 0.0 0.00 0.52 0.03 98 1019.7
20260902154512 71 111 0.0 1.7 0.00 0.52 0.03 98 1019.1
20260902153008 70 150 0.0 2.6 0.00 0.52 0.03 98 1019.0
20260902151508 70 101 0.0 2.6 0.00 0.52 0.03 98 1019.2
20260902150007 70 49 0.0 0.9 0.00 0.52 0.03 98 1019.2
20260902144506 70 11 0.0 0.9 0.00 0.52 0.03 98 1019.5
20260902143006 69 110 0.0 2.6 0.00 0.52 0.03 98 1019.4
20260902141515 69 32 0.0 0.9 0.00 0.52 0.03 98 1019.6
20260902140002 69 88 0.0 1.7 0.00 0.52 0.03 98 1019.3
20260902134502 69 268 0.0 1.7 0.00 0.53 0.03 98 1019.0
20260902133002 69 150 0.0 3.5 0.01 0.53 0.03 98 1019.0
20260902131559 69 309 0.0 0.9 0.01 0.53 0.03 98 1018.9
20260902130058 69 111 0.0 1.7 0.01 0.53 0.03 98 1018.5
20260902124605 69 108 0.0 1.7 0.01 0.53 0.03 98 1018.6
20260902123056 69 144 0.0 1.7 0.00 0.52 0.02 98 1018.6
20260902121602 69 24 0.0 0.9 0.01 0.52 0.02 98 1018.6
20260902120052 69 284 0.0 0.9 0.01 0.52 0.02 98 1018.4
20260902114552 69 283 0.0 0.9 0.01 0.52 0.02 98 1018.5
20260902113050 69 300 0.0 0.9 0.01 0.52 0.02 98 1018.1
20260902111549 69 142 0.0 0.9 0.00 0.51 0.01 98 1018.2
20260902110049 69 242 0.0 0.0 0.00 0.51 0.01 98 1018.3
20260902104551 69 242 0.0 1.7 0.00 0.51 0.01 98 1018.3
20260902103047 69 155 0.0 0.0 0.00 0.51 0.01 98 1018.2
20260902101552 69 130 0.0 1.7 0.00 0.51 0.01 98 1017.9
20260902100044 69 111 0.0 2.6 0.00 0.51 0.01 98 1017.8
20260902094543 70 342 0.0 1.7 0.00 0.51 0.01 98 1017.7
20260902093055 70 329 0.0 0.9 0.01 0.51 0.01 98 1017.6
20260902091550 70 310 0.0 1.7 0.01 0.51 0.01 98 1017.7
20260902090045 71 290 0.0 0.9 0.01 0.51 0.01 98 1017.5
20260902084549 70 178 0.0 0.0 0.01 0.51 0.01 98 1017.4
20260902083047 70 118 0.0 0.0 0.00 0.50 0.00 98 1017.3
20260902081535 70 126 0.0 1.7 0.00 0.50 0.00 98 1016.9
20260902080035 70 257 0.0 0.9 0.00 0.50 0.00 98 1016.9
20260902074534 70 269 0.0 0.9 0.00 0.50 0.00 98 1016.8
20260902073035 69 267 0.0 0.0 0.00 0.50 0.00 98 1016.9
20260902071537 69 267 0.0 0.0 0.00 0.50 0.00 98 1016.7
20260902070033 69 266 0.0 0.0 0.00 0.50 0.00 98 1016.7
20260902064533 69 266 0.0 0.0 0.00 0.50 0.00 98 1016.8
20260902063033 69 267 0.0 0.0 0.00 0.50 0.00 98 1016.6
20260902061543 69 266 0.0 0.0 0.00 0.50 0.00 98 1016.5
20260902060030 69 267 0.0 0.0 0.00 0.50 0.00 98 1016.7
20260902054534 69 267 0.0 0.0 0.00 0.50 0.00 98 1016.8
20260902053030 69 267 0.0 0.9 0.00 0.50 0.00 98 1016.7
20260902051526 69 34 0.0 0.9 0.00 0.50 0.00 98 1016.4
20260902050026 70 34 0.0 0.0 0.00 0.50 0.00 98 1016.6
20260902044524 70 34 0.0 0.0 0.00 0.51 0.00 98 1017.1
20260902043022 70 34 0.0 0.0 0.00 0.51 0.00 97 1017.0
20260902041520 70 75 0.0 0.9 0.00 0.51 0.00 98 1016.7
20260902040017 70 221 0.0 0.9 0.00 0.51 0.00 97 1016.7
20260902034519 70 253 0.0 0.0 0.00 0.52 0.51 97 1016.5
20260902033017 70 254 0.0 0.9 0.00 0.52 0.51 97 1016.4
20260902031516 70 255 0.0 1.7 0.00 0.52 0.51 97 1015.7
20260902030015 70 247 0.0 1.7 0.00 0.52 0.51 97 1015.5
20260902024521 70 257 0.0 2.6 0.00 0.52 0.51 97 1015.6